Content
SEND FEEDBACK

Daily
Averages
Monthly
Summary
United States of America

HAWLEY, OKLAHOMA


Home > North America > United States > Oklahoma
Elevation: 1200 feet     Latitude: 36 44N     Longitude: 098 07W

WEATHER
 
SELECT A DAY
Number of Records: 177,634;   Date Range: 1/3/95 - 12/24/14
 
SHARE

PRINT THIS DATA

[ ← Previous Day ]
WEATHER ALMANAC - JANUARY 3, 2013
[ Next Day → ]
[ °C ]   °F
Weather ElementAverageHighLow
Temperature27.7 °F39.2 °F (2:30 pm)19.2 °F (11:55 pm)
Dewpoint21.5 °F24.8 °F (10:55 am)17.4 °F (11:55 pm)
Humidity79.5 %100 % (3:55 am)52 % (2:30 pm)
Barometer30.44 in30.55 in (12:55 pm)30.16 in (4:55 pm)
Wind Speed7.5 mph11.5 mph (9:56 am)
Weather ElementAverage
Visibility10 mi
Wind DirectionW (272.1 °)

Weather ElementTotal
Precipitation---
Heating Degree Days35.8 (Base 65)
Averaged from 24 records on January 3, 2013
WEATHER CONDITIONS BREAKOUT
WIND DIRECTION BREAKOUT
WEATHER BY HOUR - JANUARY 3, 2013
[ °C ]   °F
Local TimeTemperatureDewpointHumidityBarometerVisibilityWind DirectionWind SpeedGust SpeedPrecipitationEventsConditions
1:55 AM20.3 °F20.1 °F99 %30.35 in10.0 miWSW (250°)9.2 mphClear
2:55 AM20.8 °F20.5 °F99 %30.38 in10.0 miWest (280°)9.2 mphClear
3:55 AM21.2 °F21.2 °F100 %30.40 in10.0 miWNW (300°)9.2 mphPartly Cloudy
4:55 AM21.2 °F21.2 °F100 %30.39 in10.0 miWNW (300°)9.2 mphPartly Cloudy
5:56 AM19.4 °F19.4 °F100 %30.42 in10.0 miWNW (290°)9.2 mphPartly Cloudy
6:55 AM19.4 °F17.6 °F93 %30.45 in10.0 miWNW (290°)10.4 mphPartly Cloudy
7:55 AM19.4 °F17.6 °F93 %30.47 in10.0 miNW (310°)9.2 mphClear
8:55 AM24.8 °F21.2 °F86 %30.48 in10.0 miNNW (330°)10.4 mphClear
9:56 AM28.4 °F23.0 °F80 %30.49 in10.0 miNNW (330°)11.5 mphClear
10:55 AM32.0 °F24.8 °F75 %30.50 in10.0 miNW (320°)10.4 mphClear
11:55 AM35.6 °F24.8 °F65 %30.48 in10.0 miNW (320°)6.9 mphPartly Cloudy
12:55 PM37.4 °F24.8 °F60 %30.55 in10.0 miNW (310°)9.2 mphPartly Cloudy
1:55 PM37.4 °F24.8 °F60 %30.45 in10.0 miNW (310°)6.9 mphScattered Clouds
2:30 PM39.2 °F23.0 °F52 %30.40 in10.0 miWNW (300°)8.1 mphScattered Clouds
2:55 PM37.4 °F23.0 °F56 %30.45 in10.0 miWNW (300°)8.1 mphScattered Clouds
3:55 PM39.2 °F23.0 °F52 %30.45 in10.0 miNW (310°)11.5 mphPartly Cloudy
4:55 PM35.6 °F23.0 °F60 %30.16 in10.0 miNW (310°)5.8 mphPartly Cloudy
5:55 PM30.2 °F23.0 °F75 %30.47 in10.0 miNW (320°)6.9 mphPartly Cloudy
6:55 PM28.4 °F21.2 °F74 %30.48 in10.0 miNW (320°)4.6 mphClear
7:55 PM28.4 °F22.1 °F77 %30.48 in10.0 miCalmClear
8:55 PM24.3 °F19.9 °F84 %30.47 in10.0 miNW (320°)3.5 mphClear
9:55 PM24.8 °F21.2 °F86 %30.46 in10.0 miCalmClear
10:55 PM20.5 °F17.6 °F89 %30.48 in10.0 miSSW (200°)6.9 mphClear
11:55 PM19.2 °F17.4 °F93 %30.48 in10.0 miSSW (210°)3.5 mphClear
Hourly data recorded from KEND, located miles away from Hawley, Oklahoma







STORIES FROM OUR PARTNERS